This is the latest recevied weather packets stored in our database for station/object N5JXS. If no packets are shown the sender has not sent any weather packets the latest 10 day(s).
| Time | Temp. | Humidity | Pressure | Rain* | Wind** | Luminosity | Snow |
|---|---|---|---|---|---|---|---|
| 1788041588 | 27.22° C | 32% | 1025.1 hPa | 0 mm | - | 94 W/m² | - |
| 1788041287 | 27.78° C | 31% | 1025 hPa | 0 mm | - | 110 W/m² | - |
| 1788040986 | 28.33° C | 29% | 1024.8 hPa | 0 mm | - | 104 W/m² | - |
| 1788040685 | 28.89° C | 27% | 1024.7 hPa | 0 mm | - | 96 W/m² | - |
| 1788040380 | 29.44° C | 27% | 1024.5 hPa | 0 mm | - | 107 W/m² | - |
| 1788040075 | 30° C | 26% | 1024.7 hPa | 0 mm | - | 435 W/m² | - |
| 1788039770 | 30° C | 26% | 1024.7 hPa | 0 mm | - | 516 W/m² | - |
| 1788039465 | 30° C | 26% | 1025 hPa | 0 mm | - | 238 W/m² | - |
| 1788039160 | 30° C | 27% | 1025 hPa | 0 mm | - | 528 W/m² | - |
| 1788038856 | 30° C | 27% | 1024.7 hPa | 0 mm | - | 562 W/m² | - |
| 1788038550 | 30° C | 27% | 1024.7 hPa | 0 mm | - | 597 W/m² | - |
| 1788038250 | 30° C | 27% | 1025.1 hPa | 0 mm | - | 452 W/m² | - |
| 1788037945 | 29.44° C | 29% | 1024.8 hPa | 0 mm | - | 601 W/m² | - |
| 1788037639 | 28.33° C | 30% | 1025 hPa | 0 mm | - | 558 W/m² | - |
| 1788037334 | 28.89° C | 29% | 1025.2 hPa | 0 mm | - | 418 W/m² | - |
| 1788037034 | 28.33° C | 29% | 1025.5 hPa | 0 mm | - | 675 W/m² | - |
| 1788036730 | 27.78° C | 31% | 1025.3 hPa | 0 mm | - | 539 W/m² | - |
| 1788036426 | 27.78° C | 31% | 1025.5 hPa | 0 mm | - | 669 W/m² | - |
| 1788036121 | 27.22° C | 33% | 1025.6 hPa | 0 mm | - | 675 W/m² | - |
| 1788035822 | 27.78° C | 33% | 1025.7 hPa | 0 mm | - | 360 W/m² | - |
| 1788035516 | 27.78° C | 31% | 1025.7 hPa | 0 mm | - | 236 W/m² | - |
| 1788035211 | 27.78° C | 31% | 1025.8 hPa | 0 mm | - | 646 W/m² | - |
| 1788034907 | 27.78° C | 31% | 1025.8 hPa | 0 mm | - | 500 W/m² | - |
| 1788034603 | 27.22° C | 33% | 1026.1 hPa | 0 mm | - | 390 W/m² | - |
| 1788034299 | 26.67° C | 33% | 1026.1 hPa | 0 mm | - | 316 W/m² | - |
* Rain latest hour (hover to see other rain measurements)
** Current wind speed in m/s (hover to see current wind gust speed)